Location: PSU-Greenbush Astrophysical Observatory
(37.5140°N, 94.9880°W)
Time: 00:14:50
(UTC-06:00)

deb Explorer IX - Pass Details

Date: 25 January 2020
Orbit: 549 x 1099 km, 38.8° (Epoch: 20 February)

Event Time Altitude Azimuth Distance (km) Brightness Sun altitude
Rises 20:06:57 0° 211° (SSW) 3,550 ? -29.9°
Reaches altitude 10° 20:09:47 10° 200° (SSW) 2,692 ? -30.4°
Enters shadow 20:12:42 22° 178° (S) 2,010 ? -31.0°
Maximum altitude 20:15:19 29° 143° (SE) 1,799 - -31.5°
Drops below altitude 10° 20:21:16 10° 87° (E) 2,921 - -32.7°
Sets 20:24:27 0° 77° (ENE) 3,903 - -33.4°
